EA3ZD-15 Weather Reports


time (UTC)temp
F
wind
direction
speed
knots
gust
knots
rain 1hr
in
rain 24hr
in
rain mn
in
humidity
%
barometer
mb
20260506184538 0 123 2.6 5.2 0.00 0.00 0.00
20260506183541 0 122 2.6 5.2 0.00 0.00 0.00
20260506182534 0 118 3.5 5.2 0.00 0.00 0.00
20260506181518 0 106 3.5 4.3 0.00 0.00 0.00
20260506180636 0 100 4.3 5.2 0.00 0.00 0.00
20260506175542 0 101 4.3 5.2 0.00 0.00 0.00
20260506174600 0 97 5.2 7.0 0.00 0.00 0.00
20260506173538 0 112 4.3 5.2 0.00 0.00 0.00
20260506172536 0 112 5.2 7.0 0.00 0.00 0.00
20260506171534 0 105 5.2 7.0 0.00 0.00 0.00
20260506170518 0 101 5.2 7.0 0.00 0.00 0.00
20260506165536 0 97 5.2 7.0 0.00 0.00 0.00
20260506164542 0 108 5.2 6.1 0.00 0.00 0.00
20260506163540 0 114 5.2 7.8 0.00 0.00 0.00
20260506162538 0 104 6.1 7.8 0.00 0.00 0.00
20260506161536 0 105 5.2 7.8 0.00 0.00 0.00
20260506160540 0 104 5.2 8.7 0.00 0.00 0.00
20260506155518 0 108 6.1 7.0 0.00 0.00 0.00
20260506154516 0 106 6.1 7.8 0.00 0.00 0.00
20260506153542 0 109 7.0 10.4 0.00 0.00 0.00
20260506152540 0 107 6.1 8.7 0.00 0.00 0.00
20260506151538 0 109 6.1 9.6 0.00 0.00 0.00
20260506150536 0 104 6.1 7.8 0.00 0.00 0.00
20260506145520 0 108 6.1 9.6 0.00 0.00 0.00
20260506144518 0 106 6.1 9.6 0.00 0.00 0.00
20260506143515 0 108 4.3 7.8 0.00 0.00 0.00
20260506142541 0 129 2.6 7.8 0.00 0.00 0.00
20260506141539 0 130 2.6 5.2 0.00 0.00 0.00
20260506140538 0 126 4.3 8.7 0.00 0.00 0.00
20260506135536 0 125 3.5 7.0 0.00 0.00 0.00
20260506134520 0 108 5.2 9.6 0.00 0.00 0.00
20260506133518 0 100 3.5 7.0 0.00 0.00 0.00
20260506132516 0 111 4.3 7.0 0.00 0.00 0.00
20260506131542 0 119 6.1 10.4 0.00 0.00 0.00
20260506130539 0 117 4.3 7.0 0.00 0.00 0.00
20260506125537 0 123 4.3 7.0 0.00 0.00 0.00
20260506124535 0 120 5.2 7.0 0.00 0.00 0.00
20260506123520 0 122 6.1 9.6 0.00 0.00 0.00
20260506122517 0 104 3.5 7.8 0.00 0.00 0.00
20260506121515 0 115 3.5 8.7 0.00 0.00 0.00
20260506120541 0 148 0.9 3.5 0.00 0.00 0.00
20260506115620 0 135 0.0 3.5 0.00 0.00 0.00
20260506114558 0 123 7.0 11.3 0.00 0.00 0.00
20260506113535 0 110 6.1 9.6 0.00 0.00 0.00
20260506112520 0 91 6.1 8.7 0.00 0.00 0.00
20260506111518 0 101 5.2 7.0 0.00 0.00 0.00
20260506110515 0 120 3.5 6.1 0.00 0.00 0.00
20260506105541 0 113 1.7 4.3 0.00 0.00 0.00
20260506104539 0 223 1.7 5.2 0.00 0.00 0.00
20260506103538 0 224 0.0 3.5 0.00 0.00 0.00
20260506102535 0 98 1.7 4.3 0.00 0.00 0.00
20260506101519 0 118 2.6 7.0 0.00 0.00 0.00
20260506100537 0 117 1.7 5.2 0.00 0.00 0.00
20260506095515 0 96 0.0 4.3 0.00 0.00 0.00
20260506094541 0 99 1.7 7.0 0.00 0.00 0.00
20260506093540 0 97 3.5 7.0 0.00 0.00 0.00
20260506092538 0 92 0.9 6.1 0.00 0.00 0.00
20260506091535 0 114 4.3 7.0 0.00 0.00 0.00
20260506090520 0 108 0.0 4.3 0.00 0.00 0.00
20260506085517 0 95 1.7 5.2 0.00 0.00 0.00
20260506084515 0 93 0.9 3.5 0.00 0.00 0.00
20260506083541 0 126 0.0 2.6 0.00 0.00 0.00
20260506082539 0 0.0 2.6 0.00 0.00 0.00
20260506081537 0 0.0 2.6 0.00 0.00 0.00
20260506080536 0 0.0 0.0 0.00 0.00 0.00
20260506073515 0 0.0 4.3 0.00 0.00 0.00
20260506072542 0 0.0 0.0 0.00 0.00 0.00
20260506071559 0 280 0.0 4.3 0.00 0.00 0.00
20260506070538 0 0.0 5.2 0.00 0.00 0.00
20260506062515 0 0.0 0.0 0.00 0.00 0.00
20260506061541 0 0.0 0.0 0.00 0.00 0.00
20260506060559 0 0.0 0.0 0.00 0.00 0.00
20260506050541 0 0.0 0.0 0.00 0.00 0.00
20260506044537 0 0.0 0.0 0.00 0.00 0.00
20260506043555 0 0.0 0.0 0.00 0.00 0.00
20260506042519 0 0.0 0.0 0.00 0.00 0.00
20260506041517 0 0.0 0.0 0.00 0.00 0.00
20260506040555 0 0.0 0.0 0.00 0.00 0.00
20260506035541 0 0.0 0.0 0.00 0.00 0.00
20260506034559 0 0.0 0.0 0.00 0.00 0.00
20260506033537 0 0.0 0.0 0.00 0.00 0.00
20260506032535 0 0.0 0.0 0.00 0.00 0.00
20260506031519 0 0.0 0.0 0.00 0.00 0.00
20260506030517 0 0.0 0.0 0.00 0.00 0.00
20260506025515 0 0.0 0.0 0.00 0.00 0.00
20260506024601 0 0.0 0.0 0.00 0.00 0.00
20260506023539 0 0.0 0.0 0.00 0.00 0.00
20260506022537 0 0.0 0.0 0.00 0.00 0.00
20260506021535 0 0.0 0.0 0.00 0.00 0.00
20260506020519 0 0.0 0.0 0.00 0.00 0.00
20260506015517 0 0.0 0.0 0.00 0.00 0.00
20260506014515 0 0.0 2.6 0.00 0.00 0.00
20260506013621 0 0.0 0.0 0.00 0.00 0.00
20260506012539 0 0.0 0.0 0.00 0.00 0.00
20260506011537 0 0.0 0.0 0.00 0.00 0.00
20260506010535 0 0.0 0.0 0.00 0.00 0.00
20260506005519 0 0.0 0.0 0.00 0.00 0.00
20260506004517 0 0.0 0.0 0.00 0.00 0.00
20260506003515 0 0.0 0.0 0.00 0.00 0.00
20260506002541 0 0.0 3.5 0.00 0.00 0.00
20260506001539 0 0.0 2.6 0.00 0.00 0.00
20260506000537 0 0.0 3.5 0.00 0.00 0.00
20260505235535 0 0.0 0.0 0.00 0.00 0.00
20260505234519 0 0.0 0.0 0.00 0.00 0.00
20260505233517 0 0.0 0.0 0.00 0.00 0.00
20260505232515 0 0.0 0.0 0.00 0.00 0.00
20260505231541 0 0.0 0.0 0.00 0.00 0.00
20260505230539 0 265 1.7 4.3 0.00 0.00 0.00
20260505225537 0 272 0.9 3.5 0.00 0.00 0.00
20260505224555 0 0.0 3.5 0.00 0.00 0.00
20260505223519 0 286 0.9 4.3 0.00 0.00 0.00
20260505222517 0 264 1.7 3.5 0.00 0.00 0.00
20260505221515 0 264 0.9 3.5 0.00 0.00 0.00
20260505220541 0 262 2.6 5.2 0.00 0.00 0.00
20260505215539 0 261 3.5 5.2 0.00 0.00 0.00
20260505214537 0 255 2.6 5.2 0.00 0.00 0.00
20260505213555 0 256 3.5 6.1 0.00 0.00 0.00
20260505212519 0 239 2.6 6.1 0.00 0.00 0.00
20260505211517 0 250 4.3 5.2 0.00 0.00 0.00
20260505210515 0 236 5.2 7.0 0.00 0.00 0.00
20260505205541 0 237 4.3 7.0 0.00 0.00 0.00
20260505204539 0 235 4.3 6.1 0.00 0.00 0.00
20260505203557 0 0.0 4.3 0.00 0.00 0.00
20260505202535 0 224 2.6 7.0 0.00 0.00 0.00
20260505201519 0 200 4.3 7.0 0.00 0.00 0.00
20260505200517 0 198 4.3 5.2 0.00 0.00 0.00
20260505195535 0 222 5.2 7.0 0.00 0.00 0.00
20260505194601 0 224 6.1 8.7 0.00 0.00 0.00
20260505193539 0 231 6.1 7.8 0.00 0.00 0.00
20260505192537 0 227 7.0 9.6 0.00 0.00 0.00
20260505191600 0 226 6.1 7.8 0.00 0.00 0.00
20260505190519 0 246 5.2 7.0 0.00 0.00 0.00
20260505185557 0 0.0 0.0 0.00 0.00 0.00